GFSNW_850_temp_021.txt.gz
Temp
3 3 3 3 3 4 4 3 5 5 6 6 5 6 5 7 8 7 9 11 11 12 12 14 14 14 14 13 15 16 15 21 23 23 25 27 26 25 25 25 23 25 26 27
3 3 3 3 3 3 3 1 1 4 4 4 4 4 5 7 7 7 7 8 9 11 11 12 12 13 13 13 15 14 16 18 22 23 25 24 25 26 26 27 26 24 25 27
3 3 3 3 3 3 2 1 4 3 3 2 4 4 5 5 6 6 4 6 8 9 10 11 11 12 13 12 13 13 14 16 19 23 23 20 21 23 25 26 25 25 25 27
3 3 3 3 3 3 2 2 2 1 4 5 4 4 4 5 5 6 6 3 4 6 8 10 10 10 11 13 11 13 14 16 16 16 17 18 18 20 21 22 24 25 26 26
3 3 3 3 2 2 2 1 2 1 1 3 4 4 5 4 5 5 6 4 4 4 4 7 8 8 9 10 12 12 13 15 14 15 17 18 18 19 20 21 22 22 23 24
3 3 3 3 2 2 1 2 1 1 1 3 2 5 5 5 5 5 5 4 3 5 7 6 7 7 8 9 9 10 11 14 14 15 16 17 18 20 20 21 22 23 23 25
3 3 3 3 2 2 1 1 1 1 3 2 3 4 4 4 5 3 4 4 5 6 5 6 8 7 8 8 9 9 11 12 13 15 15 15 21 22 21 22 23 24 24 25
4 3 3 2 2 2 2 1 1 1 2 4 4 4 4 4 3 4 4 4 4 4 5 7 8 9 9 10 10 11 10 11 13 14 16 18 18 20 20 20 23 23 21 24
4 4 3 2 2 2 2 2 1 1 1 4 3 3 3 2 3 4 4 4 4 4 6 6 6 8 10 11 11 11 11 10 11 13 14 15 19 21 19 18 20 19 18 20
4 4 4 3 2 2 2 1 1 1 1 1 2 3 3 2 2 2 4 4 4 4 5 6 6 8 9 10 11 10 9 9 10 11 12 16 18 18 17 18 21 18 17 17
5 5 4 4 3 2 2 2 2 1 1 1 1 1 2 2 2 2 4 4 3 4 5 5 6 5 8 8 10 11 10 10 9 11 11 11 17 18 18 18 16 16 17 15
6 5 4 4 3 3 3 2 2 2 1 2 2 1 1 1 2 2 1 3 3 4 4 4 3 6 7 7 8 10 9 11 11 12 13 15 14 14 15 14 15 15 15 15
6 5 4 4 3 3 3 3 2 2 1 1 2 4 4 4 4 2 2 2 3 3 3 3 4 4 5 6 8 8 10 10 10 11 13 14 14 14 15 14 14 14 14 13
7 6 5 4 3 4 3 3 3 2 2 1 2 3 4 3 3 3 2 2 3 3 2 2 3 4 5 5 7 7 8 8 9 10 11 12 13 14 14 13 14 13 13 12
7 6 6 5 4 4 4 3 3 2 2 2 2 2 5 4 4 3 3 2 2 2 3 3 4 4 4 5 5 6 8 8 9 11 12 10 11 11 12 13 13 12 13 13
8 7 7 5 5 4 3 3 3 3 2 2 2 3 4 4 5 4 3 2 1 1 2 3 3 5 4 5 5 9 8 8 8 9 9 8 9 9 11 12 12 13 12 13
8 7 7 6 5 5 4 4 3 2 1 1 2 3 4 4 4 3 2 1 1 1 1 2 4 5 4 4 5 8 8 8 7 8 7 7 9 10 12 11 12 13 12 12
8 8 7 7 6 5 3 3 3 2 1 1 2 3 3 3 5 5 3 2 1 1 2 3 5 5 4 4 6 7 6 6 5 5 6 6 8 9 11 10 11 11 11 11
9 7 6 5 5 4 3 3 3 2 2 0 0 3 4 3 3 4 4 3 3 3 3 5 4 5 5 5 5 6 6 5 6 7 7 8 8 9 10 10 10 11 11 11
8 7 6 6 5 4 4 3 2 2 1 0 0 -0 2 2 3 5 5 5 4 4 4 2 4 4 4 5 5 5 5 5 6 6 7 8 9 9 10 10 10 11 11 11
8 8 7 6 5 4 4 4 3 2 1 0 1 1 2 2 3 5 4 3 2 5 4 3 4 4 5 6 8 9 8 8 8 8 9 9 10 9 10 10 10 10 10 10
8 8 8 7 7 7 6 5 5 4 5 4 3 4 3 3 3 5 5 4 3 6 5 5 5 4 5 6 6 6 7 7 9 9 9 9 9 10 10 10 10 10 9 11
9 8 8 8 6 4 5 5 5 6 7 7 6 7 6 6 6 7 6 7 7 7 5 4 3 4 4 5 6 6 7 6 6 7 8 9 9 9 8 8 8 8 9 10
9 8 5 7 6 5 5 5 5 6 6 7 6 7 6 7 8 8 7 7 7 7 6 5 4 4 4 4 6 6 6 7 6 8 7 7 9 8 8 9 9 9 10 11
8 8 5 7 7 6 7 7 5 7 7 8 8 8 8 8 8 7 6 8 6 5 5 4 4 4 5 5 6 7 6 7 7 7 6 6 7 8 7 8 8 9 10 10
9 8 8 7 8 8 7 7 7 8 8 9 9 9 9 8 7 7 6 6 6 6 5 4 5 7 7 6 7 7 8 7 8 7 7 8 8 7 7 8 9 9 9 10
8 8 7 6 6 6 7 7 7 9 9 9 9 7 6 7 7 6 6 5 5 4 4 4 5 6 6 7 8 9 8 9 9 9 9 8 8 8 9 8 8 8 8 8

GFSNW_850_temp_024.txt.gz
Temp
4 4 4 4 4 5 4 6 11 7 7 11 10 10 9 9 11 11 12 13 13 14 15 17 19 19 18 16 19 21 24 26 27 27 29 29 29 28 29 28 27 29 30 32
4 4 4 4 4 4 3 6 7 7 7 9 9 9 10 10 10 9 9 10 12 13 14 15 16 16 16 16 19 20 22 24 25 27 28 29 28 29 29 29 30 28 29 30
4 4 4 4 4 4 3 5 9 9 8 7 8 8 9 9 9 9 9 5 9 11 14 15 15 16 16 16 16 14 16 23 25 27 27 27 27 28 29 29 29 29 30 31
4 4 3 3 3 3 3 5 7 5 7 7 7 7 9 8 7 9 9 5 4 5 10 13 14 14 15 16 15 18 19 21 21 25 23 24 28 28 29 28 28 29 30 30
4 4 3 3 2 3 3 5 5 4 3 5 7 7 8 8 7 8 8 7 5 6 5 7 8 11 14 15 15 16 18 19 19 21 22 22 23 24 26 28 29 29 29 29
5 4 4 3 2 2 3 3 3 2 4 6 7 7 6 6 7 7 7 8 8 8 7 7 8 10 11 12 13 14 16 18 18 21 22 22 22 23 24 25 26 27 26 28
5 5 4 3 2 1 1 2 2 2 5 7 6 6 6 6 5 4 6 7 8 8 7 8 9 11 12 13 13 14 14 16 18 20 20 19 24 27 26 25 26 26 26 27
5 5 4 4 3 2 1 1 1 2 4 6 7 6 6 6 5 6 7 7 7 7 7 10 11 13 12 13 14 14 15 15 17 18 19 22 23 23 24 24 25 27 27 27
6 5 4 4 3 2 1 2 1 1 2 6 6 5 5 6 6 7 7 7 7 7 9 10 9 12 13 14 14 15 16 14 16 17 17 19 23 24 23 23 22 26 24 25
6 5 5 4 3 3 2 2 2 1 1 2 3 5 5 4 5 6 7 7 7 7 8 9 10 11 13 13 14 14 14 14 14 16 16 19 23 22 21 20 22 22 22 23
6 5 5 5 4 3 3 3 2 2 1 2 3 4 4 4 4 4 6 6 6 7 7 8 10 10 11 12 14 14 14 14 14 15 15 16 20 20 19 19 19 19 20 20
6 6 5 5 4 3 3 3 3 2 1 2 3 3 3 3 3 3 2 6 7 7 7 7 7 9 10 10 12 14 12 14 15 16 16 18 18 18 17 17 18 18 18 19
6 6 6 5 5 4 3 3 3 3 1 2 2 6 6 4 4 4 3 3 4 5 6 6 7 7 10 9 11 11 13 14 13 14 15 16 15 15 16 16 16 17 17 18
6 7 6 6 4 4 4 4 3 3 2 2 5 5 5 5 5 4 4 4 4 5 4 4 4 4 9 9 11 11 13 13 12 13 14 14 15 15 15 15 16 16 17 17
7 7 7 7 5 4 4 4 3 3 3 2 3 3 5 5 5 4 4 4 4 3 3 3 3 4 5 8 9 9 11 11 12 13 14 14 14 15 13 13 13 14 16 16
8 8 7 7 7 6 3 4 3 3 2 2 3 5 5 5 4 4 4 4 4 4 3 4 4 5 4 6 7 11 11 11 11 12 13 13 13 12 11 12 13 14 15 15
8 8 7 7 7 5 4 4 3 3 2 2 2 4 5 4 4 4 3 2 2 2 2 2 3 6 4 4 6 10 10 11 10 10 10 9 10 11 11 12 13 14 14 13
9 7 7 6 6 5 4 3 3 2 2 1 2 4 3 3 4 4 2 2 1 1 1 1 3 3 3 4 7 7 7 7 8 7 7 7 8 9 10 9 12 11 11 12
9 7 6 5 4 4 4 3 3 2 2 1 0 3 4 3 3 4 2 1 2 1 2 3 3 4 4 4 4 4 4 5 5 5 5 6 8 9 9 10 10 10 11 12
8 7 6 8 4 4 3 3 2 2 2 1 0 0 2 2 3 4 4 4 3 4 3 1 2 3 2 4 6 8 5 4 5 5 6 6 8 10 11 9 9 10 12 11
6 7 8 6 5 5 5 6 4 3 3 1 2 1 2 3 4 5 4 4 3 5 5 4 3 4 4 5 5 6 7 6 5 5 6 8 9 9 9 10 10 11 11 11
9 9 8 7 7 8 8 6 6 6 7 7 5 6 4 4 3 5 5 5 5 7 7 5 5 3 4 4 5 5 6 8 8 7 8 8 8 9 9 9 9 9 9 9
10 9 8 9 7 5 5 5 6 7 9 9 9 8 8 8 7 10 11 10 9 9 7 5 3 4 4 4 4 5 5 6 6 7 6 7 8 7 7 7 7 8 8 7
10 9 6 9 9 7 5 6 8 8 8 10 11 10 9 9 10 9 9 11 11 9 6 5 4 4 4 3 4 5 5 5 7 6 7 8 8 7 8 8 8 8 8 8
10 10 8 10 9 11 10 10 10 10 10 11 13 14 14 13 11 10 9 9 7 5 5 6 5 4 4 4 4 4 4 5 5 7 7 7 7 7 7 8 8 8 8 9
10 10 11 10 11 11 11 11 11 10 12 12 13 12 11 11 10 6 6 6 5 5 5 5 5 4 5 5 5 5 6 5 5 6 6 6 6 7 6 7 8 7 7 7
10 11 10 10 10 10 10 10 10 10 12 13 12 9 7 8 7 6 5 5 4 4 4 4 4 4 5 6 6 6 6 6 6 6 6 5 5 6 6 5 5 5 5 5

GFSNW_850_temp_030.txt.gz
Temp
7 7 7 6 6 5 7 8 14 14 13 15 16 15 14 14 12 14 15 15 15 12 11 11 11 14 15 18 21 24 29 28 28 30 33 32 32 31 31 30 29 32 32 34
7 7 6 6 6 5 4 8 12 14 13 14 14 14 14 14 12 13 14 14 14 13 11 9 10 10 12 15 19 20 22 26 27 28 32 32 31 31 32 32 32 30 31 33
6 6 6 6 5 5 5 7 12 12 11 13 13 13 13 12 12 11 13 14 13 13 11 12 8 9 12 14 17 18 20 22 26 28 29 32 30 31 32 32 30 31 32 32
6 6 5 5 5 5 4 7 10 9 10 11 12 12 12 9 11 10 12 12 11 12 11 10 11 11 12 12 16 19 22 22 25 28 31 32 31 31 31 31 32 31 33 33
6 6 5 5 4 4 5 4 4 5 7 9 11 12 11 11 12 12 11 11 12 13 11 10 9 10 11 9 14 16 20 21 24 25 29 30 30 31 31 32 32 32 33 34
6 6 5 5 4 3 3 3 2 2 6 9 10 11 11 11 11 11 11 10 12 12 12 11 12 12 13 13 13 15 17 19 21 23 26 27 28 30 31 32 32 33 32 34
6 6 5 5 4 3 3 2 2 1 4 8 10 10 10 10 11 10 11 11 11 11 12 12 13 13 14 15 16 17 16 17 19 21 24 23 28 31 31 32 32 33 33 34
6 6 5 5 4 3 3 3 2 1 3 6 8 9 9 9 10 11 11 11 9 11 12 12 12 13 15 16 17 17 18 17 18 21 22 25 27 29 29 29 31 33 33 34
6 6 5 5 4 3 3 3 3 1 1 4 6 6 8 8 9 10 11 9 10 11 12 11 10 12 15 16 16 18 18 18 17 19 21 22 26 29 30 31 27 27 30 31
6 6 6 5 4 3 3 3 3 3 1 2 4 5 6 7 7 7 10 9 10 9 8 10 12 13 15 16 17 17 16 17 17 18 19 23 21 26 29 26 20 22 24 27
6 7 6 5 5 3 3 4 3 3 2 2 3 4 5 5 7 7 8 9 8 8 7 9 8 10 14 15 16 15 17 16 16 18 19 18 21 23 22 20 20 20 21 22
7 7 7 6 5 3 4 4 4 4 3 3 4 4 4 4 5 6 6 7 8 9 8 8 9 11 13 12 13 17 16 17 17 18 19 21 20 21 20 20 20 20 19 20
9 8 8 7 4 4 4 4 4 4 3 3 3 4 6 5 6 7 6 7 7 8 7 9 10 10 13 11 14 11 13 16 16 17 18 18 19 19 19 19 19 19 18 19
9 8 8 6 4 4 4 4 4 4 3 2 5 6 6 6 6 6 7 6 6 7 7 8 8 8 11 12 12 13 14 15 15 15 17 18 18 18 18 17 17 18 18 18
9 9 8 8 8 7 5 5 4 4 3 3 4 5 6 5 6 6 7 7 7 7 6 7 7 8 9 11 12 12 14 14 14 14 15 15 16 16 17 17 17 17 17 17
9 9 8 8 7 6 5 5 4 4 3 3 4 4 4 4 5 6 5 4 4 4 4 4 4 6 4 6 9 12 12 12 10 10 9 11 13 14 15 15 16 17 17 17
9 8 8 7 6 5 6 6 4 4 3 2 3 3 4 4 4 4 4 3 3 3 2 1 2 3 3 3 5 8 8 7 7 8 9 10 10 12 13 14 14 14 14 15
9 8 8 7 6 5 5 5 4 3 2 2 3 4 4 3 4 4 3 2 2 1 1 0 1 2 2 3 4 3 3 3 3 4 6 7 9 10 12 13 13 13 13 14
9 8 8 7 6 6 5 5 4 3 3 3 2 4 6 4 4 4 3 2 3 1 2 1 1 2 3 1 1 5 6 5 5 4 4 6 8 9 11 12 12 13 12 13
9 9 7 8 7 6 6 5 5 4 3 3 4 3 6 4 4 4 5 3 5 5 5 1 2 2 4 5 5 5 6 6 5 5 6 6 8 9 10 11 12 11 11 12
10 9 11 9 8 6 7 10 11 12 11 8 9 6 8 5 6 6 5 6 5 7 9 8 4 4 5 5 5 5 5 5 5 7 7 7 7 8 8 9 9 10 11 12
11 11 10 9 9 12 13 11 13 12 12 13 13 12 9 9 5 5 7 10 9 10 11 7 5 5 6 6 5 5 4 5 5 5 6 6 6 7 8 8 8 8 8 9
10 11 12 12 13 10 11 7 9 13 13 15 15 13 11 11 9 11 13 14 13 13 9 5 5 6 7 7 6 6 5 4 4 5 5 5 5 5 6 6 5 6 6 6
14 14 7 14 14 15 15 16 14 15 15 16 15 15 14 16 15 15 12 14 12 9 6 6 7 7 7 7 7 7 6 5 5 4 5 5 5 5 5 5 5 7 5 4
14 15 10 15 16 17 16 16 15 15 16 16 14 15 16 16 14 14 12 11 8 8 7 8 8 7 7 7 7 7 7 7 6 6 5 5 4 4 4 4 5 5 4 4
15 16 16 16 16 16 15 15 15 15 16 17 16 15 14 13 13 11 8 7 7 8 8 9 8 8 7 7 8 7 7 7 8 7 7 6 5 5 4 4 4 4 4 4
16 16 16 15 15 15 15 14 14 14 15 16 16 13 13 13 12 10 9 7 8 9 9 10 8 7 7 8 8 8 8 7 7 8 8 8 7 7 6 5 5 5 5 4

GFSNW_850_temp_033.txt.gz
Temp
7 7 7 7 7 7 9 7 9 13 13 13 14 13 14 14 14 12 12 12 14 12 12 10 10 9 9 9 11 12 16 16 22 24 28 29 28 27 27 25 23 24 24 26
6 6 7 6 6 6 6 5 9 12 11 11 11 12 13 13 10 11 12 11 11 13 9 8 8 9 11 9 10 11 12 15 20 23 24 27 28 28 28 25 23 24 23 23
6 6 6 6 6 6 6 6 9 9 9 10 10 11 11 11 11 11 11 11 12 11 10 10 7 8 11 9 10 11 12 15 16 20 24 25 27 28 28 26 26 26 25 27
6 6 6 5 6 5 5 7 8 6 6 7 8 10 11 11 10 11 12 11 10 9 8 10 8 10 10 11 10 10 10 13 17 21 24 26 28 28 29 27 26 26 27 27
6 6 5 5 4 5 5 5 4 2 3 5 8 9 9 10 11 11 10 10 10 10 9 8 8 10 10 9 9 10 11 12 16 20 24 26 26 29 29 29 28 27 28 27
6 5 5 5 4 2 3 4 3 2 3 5 7 8 9 9 10 10 11 11 10 10 11 10 11 12 12 11 11 9 10 14 14 18 23 25 24 26 29 29 29 28 26 27
6 5 5 4 3 3 2 3 3 1 3 4 6 7 8 8 9 8 10 11 8 9 10 10 11 12 12 13 13 11 10 13 14 16 20 20 23 26 28 29 29 30 29 28
6 5 5 4 4 3 3 3 3 2 2 3 4 7 7 7 8 8 9 10 9 9 9 9 10 10 11 12 14 12 13 13 13 15 19 22 25 24 23 28 20 21 23 28
6 5 5 5 4 3 3 4 3 2 1 3 3 3 5 5 6 7 8 8 9 9 9 8 8 8 10 12 14 13 14 15 14 15 17 20 17 20 22 25 17 20 21 23
7 6 6 6 4 3 3 4 3 3 1 2 3 4 4 4 5 5 7 7 8 7 5 7 9 9 13 12 11 12 14 14 14 15 16 15 18 20 20 20 16 19 19 20
7 7 7 6 4 3 3 4 4 3 3 3 3 3 3 3 4 5 6 6 7 7 6 6 5 6 10 10 11 8 13 13 14 16 16 13 16 19 16 17 18 18 18 18
8 8 8 7 4 4 4 4 4 4 3 3 4 3 4 4 4 3 5 5 6 7 6 6 7 8 9 10 8 10 10 10 9 13 13 15 13 15 18 18 18 18 18 18
9 8 8 6 4 4 4 4 4 4 3 3 3 4 4 5 6 5 5 7 6 6 7 8 7 8 9 9 9 10 12 12 11 12 14 14 15 16 16 17 17 17 17 17
9 8 8 8 8 5 4 5 4 4 3 3 4 5 5 5 6 5 6 6 7 7 7 7 7 7 8 7 8 9 11 11 12 12 13 13 13 12 12 14 16 17 17 17
9 8 8 7 7 6 5 5 4 4 4 3 3 4 4 4 5 5 6 6 6 6 5 5 5 6 6 7 7 9 11 9 8 8 9 9 9 10 11 12 14 15 15 17
9 8 8 7 6 6 5 5 4 4 3 3 4 4 5 5 5 5 4 4 4 4 3 4 4 4 4 4 5 9 8 5 5 5 6 7 7 8 10 12 13 14 14 14
9 9 8 7 7 6 6 6 6 4 3 3 3 5 5 5 4 4 3 3 3 2 2 1 1 2 3 3 4 5 4 3 3 6 4 4 6 8 10 10 12 13 14 13
9 9 8 8 7 6 6 6 6 5 3 3 5 6 6 5 4 4 3 2 2 2 1 1 1 1 1 2 3 3 5 6 7 6 6 5 4 5 8 10 11 12 13 13
9 8 8 8 7 7 7 6 6 5 4 4 4 6 7 5 4 4 3 3 3 2 2 1 1 1 3 3 3 4 4 5 5 5 5 5 4 5 7 8 10 11 12 12
9 9 8 8 9 8 7 6 5 5 4 4 5 5 7 6 5 5 4 3 5 5 5 1 2 2 5 5 4 4 4 5 5 6 5 4 5 6 7 9 10 11 11 11
10 9 11 10 10 8 8 9 10 11 9 7 6 6 8 7 7 7 5 6 5 6 6 6 4 3 5 5 5 4 4 3 4 5 5 6 6 7 8 9 9 9 9 10
10 11 11 11 10 11 13 10 12 13 11 14 11 10 9 7 6 6 6 7 6 9 8 5 4 5 6 6 5 4 4 4 4 3 4 4 4 6 8 8 7 7 7 7
11 11 12 13 13 11 11 6 8 12 15 15 14 12 12 9 8 8 10 12 11 12 7 5 5 6 7 7 7 6 5 4 4 4 4 4 4 4 5 5 5 5 5 5
11 14 8 13 13 15 15 15 14 15 15 15 15 14 15 14 13 13 12 12 11 8 5 5 6 7 7 7 7 7 6 5 5 4 4 3 3 3 3 3 3 4 3 3
15 15 8 15 16 16 16 15 15 15 15 16 15 15 15 14 13 12 10 10 7 7 6 6 8 8 7 7 7 7 7 7 6 5 5 4 4 3 2 2 2 2 3 3
16 16 16 15 15 15 15 15 14 14 15 16 15 14 13 12 12 11 8 6 6 8 8 8 8 8 7 8 8 8 8 8 7 6 6 5 4 4 4 3 3 3 3 2
16 17 16 15 15 14 14 14 14 14 14 14 14 12 11 12 11 10 10 9 9 10 10 8 8 8 8 8 8 8 8 8 8 8 7 6 5 5 4 4 4 4 4 4